Weather Roundup
Issued by NWS

Home | Current Version | Previous Version | Graphics & Text | Print | Product List | Glossary Off
Versions: 1 2 3 4 5 6 7 8 9 10 11 12 13 14 15 16 17 18 19 20 21 22 23 24 25 26 27 28 29 30 31 32 33 34 35 36 37 38 39 40 41 42 43 44 45 46 47 48 49 50

000
NZUS93 KARX 191659
HRRWXR

CURRENT HOURLY OBSERVATIONS ACROSS
MUCH OF THE UPPER MISSISSIPPI VALLEY
NATIONAL WEATHER SERVICE LA CROSSE WI
1100 AM CST THU JAN 19 2017


...SOUTHEAST MINNESOTA...


CITY           SKY/WX    TMP DP  RH WIND       PRES   REMARKS
ROCHESTER      FOG       30  30 100 SE13      29.84F VSB<1/4 WCI  20
ROCHESTER/MAYO CLOUDY    31  31 100 SE10      29.84F WCI  22
WINONA         CLOUDY    34  32  93 SE5       29.89F WCI  30
AUSTIN         FOG       30  28  93 S7        29.84S VSB<1/4 WCI  23
ALBERT LEA     FOG       30  30 100 SE12      29.81F VSB 1/4 WCI  21
DODGE CENTER   FOG       30  30 100 SE10      29.82F VSB 1/4 WCI  21
PRESTON        FOG       30  29  97 SE5       29.85F VSB<1/4 WCI  25
OWATONNA       CLOUDY    34  30  86 SE9       29.81F FOG     WCI  26
FARIBAULT      MOSUNNY   36  32  87 SE9       29.81F FOG     WCI  29
$$

...ELSEWHERE IN MINNESOTA...


CITY           SKY/WX    TMP DP  RH WIND       PRES   REMARKS
MINNEAPOLIS    MOSUNNY   36  31  82 SE10      29.81S WCI  28
INTNL FALLS    CLOUDY    32  30  92 S8        29.66R FOG     WCI  25
DULUTH         CLOUDY    34  34 100 SW8       29.74F FOG     WCI  27
RED WING       CLOUDY    32  30  93 SE9       29.84F FOG     WCI  24
REDWOOD FALLS  SUNNY     36  32  85 SE15      29.74S FOG     WCI  27
MANKATO        CLOUDY    34  32  92 S8        29.80S FOG     WCI  27
WORTHINGTON    FOG       34  33  96 S12       29.75S VSB 1   WCI  25
FAIRMONT       CLOUDY    34  33  96 S12       29.79F FOG     WCI  25
$$

...SOUTHWEST WISCONSIN...


CITY           SKY/WX    TMP DP  RH WIND       PRES   REMARKS
LA CROSSE      CLOUDY    35  32  88 S7        29.89F FOG     WCI  29
PRAIRIE DU CHI CLOUDY    33  32  97 SE3       29.92S FOG
BOSCOBEL       CLOUDY    35  32  88 S3        29.94R FOG
LONE ROCK      NOT AVBL
PLATTEVILLE    CLOUDY    33  33 100 E5        29.92R VSB<1/4 WCI  28
FORT MC COY    SUNNY     35  34  95 CALM      29.90F
MAUSTON-NEW LI CLOUDY    32  32  99 CALM      29.91S FOG
VIROQUA        CLOUDY    32  32 100 SE6       29.89S VSB<1/4 WCI  26
WIS DELLS      FOG       32  32  99 SW6       29.92S VSB 1/4 WCI  27
$$

...ELSEWHERE IN WISCONSIN...


CITY           SKY/WX    TMP DP  RH WIND       PRES   REMARKS
MILWAUKEE      FOG       34  33  96 S5        29.97F VSB 1/4 WCI  30
MADISON        FOG       33  33 100 S6        29.94F VSB 1/4 WCI  28
GREEN BAY      FOG       34  34 100 S8        29.95S VSB 1/4 WCI  27
EAU CLAIRE     NOT AVBL
BLACK RVR FLS  FAIR      38  36  93 CALM      29.87F
MEDFORD        FOG       31  31  99 SE3       29.86S VSB<1/4
WAUSAU         FOG       32  32 100 S6        29.87F VSB 1/4 WCI  26
WIS RAPIDS     FOG       32  32 100 SE5       29.91F VSB 3/4 WCI  27
MARSHFIELD     FOG       31  31 100 SE8       29.87F VSB<1/4 WCI  23
RICE LAKE      FOG       32  32 100 SE12      29.84F VSB 1/4 WCI  23
$$

...NORTHEAST IOWA...


CITY           SKY/WX    TMP DP  RH WIND       PRES   REMARKS
WATERLOO       CLOUDY    33  32  96 SE9       29.87F FOG     WCI  25
DUBUQUE        FOG       33  33 100 SE7       29.90F VSB 1/4 WCI  27
DECORAH        FOG       32  32 100 SE7       29.88S VSB 1/4 WCI  26
MASON CITY     FOG       31  31 100 SE12      29.83F VSB 1/4 WCI  22
CHARLES CITY   FOG       32  32 100 E13       29.86F VSB 1/4 WCI  22
OELWEIN        CLOUDY    32  32 100 SE8       29.88F FOG     WCI  25
$$

...ELSEWHERE IN IOWA...


CITY           SKY/WX    TMP DP  RH WIND       PRES   REMARKS
DES MOINES     DRIZZLE   37  36  96 E6        29.83F FOG     WCI  32
IOWA CITY      CLOUDY    38  35  89 E3        29.89F
FORT DODGE     CLOUDY    36  34  93 SE7       29.81F WCI  30
MARSHALLTOWN   CLOUDY    33  33 100 E9        29.84F FOG     WCI  25
CEDAR RAPIDS   DRIZZLE   34  33  96 SE6       29.87F FOG     WCI  29
$$

...NORTHERN ILLINOIS...


CITY           SKY/WX    TMP DP  RH WIND       PRES   REMARKS
CHICAGO-OHARE  CLOUDY    38  35  89 SE7       29.95F FOG     WCI  33
CHICAGO-MIDWAY CLOUDY    38  34  85 E5        29.96F FOG     WCI  34
MOLINE         CLOUDY    37  34  89 E10       29.90F FOG     WCI  30
ROCKFORD       FOG       35  34  96 SE5       29.96F VSB 3/4 WCI  31
PEORIA         PTSUNNY   41  37  86 SE6       29.92F
$$

NOTE: "FAIR" INDICATES FEW OR NO CLOUDS BELOW 12,000 FEET WITH NO
SIGNIFICANT WEATHER AND/OR OBSTRUCTIONS TO VISIBILITY. WIND
SPEEDS ARE IN MILES-PER-HOUR.




USA.gov is the U.S. government's official web portal to all federal, state and local government web resources and services.